Satellite: UO-22
Catalog number: 21575
Epoch time:      05013.75127288
Element set:     303
Inclination:       98.2237 deg
RA of node:       345.0894 deg
Eccentricity:    0.0007266
Arg of perigee:   188.1362 deg
Mean anomaly:     171.9697 deg
Mean motion:   14.39452416 rev/day
Decay rate:        2.4e-07 rev/day^2
Epoch rev:           70828
Checksum:              314

Satellite: KO-23
Catalog number: 22077
Epoch time:      05013.74523035
Element set:     365
Inclination:       66.0871 deg
RA of node:       109.8911 deg
Eccentricity:    0.0013925
Arg of perigee:   292.8200 deg
Mean anomaly:      67.1337 deg
Mean motion:   12.86427900 rev/day
Decay rate:       -3.7e-07 rev/day^2
Epoch rev:           58372
Checksum:              288

Satellite: AO-27
Catalog number: 22825
Epoch time:      05012.69622830
Element set:      37
Inclination:       98.2444 deg
RA of node:        16.4783 deg
Eccentricity:    0.0008446
Arg of perigee:    10.4549 deg
Mean anomaly:     349.6793 deg
Mean motion:   14.29108044 rev/day
Decay rate:       -4.0e-07 rev/day^2
Epoch rev:           58901
Checksum:              300

Satellite: IO-26
Catalog number: 22826
Epoch time:      05013.38392679
Element set:     705
Inclination:       98.2413 deg
RA of node:        18.4186 deg
Eccentricity:    0.0009228
Arg of perigee:     6.0439 deg
Mean anomaly:     354.0859 deg
Mean motion:   14.29347542 rev/day
Decay rate:        7.1e-07 rev/day^2
Epoch rev:           58917
Checksum:              318

Satellite: KO-25
Catalog number: 22828
Epoch time:      05013.06527454
Element set:     966
Inclination:       98.2346 deg
RA of node:        18.3391 deg
Eccentricity:    0.0009798
Arg of perigee:   344.3572 deg
Mean anomaly:      15.7303 deg
Mean motion:   14.29663410 rev/day
Decay rate:       -2.8e-07 rev/day^2
Epoch rev:           55735
Checksum:              312

Satellite: TO-31
Catalog number: 25396
Epoch time:      05013.72107745
Element set:     151
Inclination:       98.5515 deg
RA of node:        85.4723 deg
Eccentricity:    0.0001665
Arg of perigee:   262.9692 deg
Mean anomaly:      97.1320 deg
Mean motion:   14.23652984 rev/day
Decay rate:       -4.3e-07 rev/day^2
Epoch rev:           33843
Checksum:              300

Satellite: GO-32
Catalog number: 25397
Epoch time:      05012.68681603
Element set:     650
Inclination:       98.5445 deg
RA of node:        82.2784 deg
Eccentricity:    0.0000841
Arg of perigee:   317.8453 deg
Mean anomaly:      42.2703 deg
Mean motion:   14.23065567 rev/day
Decay rate:       -4.6e-07 rev/day^2
Epoch rev:           33821
Checksum:              294

Satellite: UO-36
Catalog number: 25693
Epoch time:      05013.57729262
Element set:     824
Inclination:       64.5593 deg
RA of node:        38.5087 deg
Eccentricity:    0.0039175
Arg of perigee:   231.8162 deg
Mean anomaly:     127.9412 deg
Mean motion:   14.78451103 rev/day
Decay rate:       1.29e-06 rev/day^2
Epoch rev:           30896
Checksum:              316

Satellite: SO-41
Catalog number: 26545
Epoch time:      05012.77059968
Element set:     974
Inclination:       64.5584 deg
RA of node:        56.4141 deg
Eccentricity:    0.0033654
Arg of perigee:   331.8261 deg
Mean anomaly:      28.1056 deg
Mean motion:   14.79984756 rev/day
Decay rate:       2.23e-06 rev/day^2
Epoch rev:           23192
Checksum:              320

Satellite: MO-46
Catalog number: 26548
Epoch time:      05013.52743003
Element set:      78
Inclination:       64.5573 deg
RA of node:        38.6142 deg
Eccentricity:    0.0032569
Arg of perigee:   320.5523 deg
Mean anomaly:      39.3229 deg
Mean motion:   14.82578249 rev/day
Decay rate:       3.39e-06 rev/day^2
Epoch rev:           23235
Checksum:              300

Satellite: SO-42
Catalog number: 26549
Epoch time:      05013.11636046
Element set:      34
Inclination:       64.5581 deg
RA of node:        63.1314 deg
Eccentricity:    0.0033764
Arg of perigee:   339.8282 deg
Mean anomaly:      20.1509 deg
Mean motion:   14.78870163 rev/day
Decay rate:       1.98e-06 rev/day^2
Epoch rev:           23182
Checksum:              286

Satellite: NO-44
Catalog number: 26931
Epoch time:      05012.98176915
Element set:     946
Inclination:       67.0541 deg
RA of node:       267.5206 deg
Eccentricity:    0.0007294
Arg of perigee:   264.1862 deg
Mean anomaly:      95.8378 deg
Mean motion:   14.29355501 rev/day
Decay rate:       2.72e-06 rev/day^2
Epoch rev:           17158
Checksum:              322

Satellite: AO-49
Catalog number: 27605
Epoch time:      05013.09748611
Element set:     635
Inclination:       64.5574 deg
RA of node:       246.8588 deg
Eccentricity:    0.0085750
Arg of perigee:   270.4149 deg
Mean anomaly:      88.7128 deg
Mean motion:   14.72018058 rev/day
Decay rate:       1.58e-06 rev/day^2
Epoch rev:           11102
Checksum:              315

Satellite: SO-50
Catalog number: 27607
Epoch time:      05013.77130526
Element set:     617
Inclination:       64.5581 deg
RA of node:       249.5997 deg
Eccentricity:    0.0086639
Arg of perigee:   269.3175 deg
Mean anomaly:      89.8017 deg
Mean motion:   14.70855751 rev/day
Decay rate:       2.26e-06 rev/day^2
Epoch rev:           11102
Checksum:              321

